sat.trackr.live / text

‹ back to catalog

STARLINK-30403

NORAD 57813 · 2023-138F

PAYLOAD ACTIVE UNKNOWN

§ Identity

Operator
Country
US
Launch date
2023-09-09
Launch site
AFETR
Launch vehicle
Mass (kg)
RCS (m²)

Purposes: comms

External: N2YO · Heavens-Above · Gunter

§ Orbital elements

Epoch: 2026-05-24T18:32:00.685824Z

Period
94.27 min
Inclination
43.0026°
Eccentricity
0.0000981
Mean motion
15.27565478 rev/d
Perigee alt
482.4 km
Apogee alt
483.8 km
Semi-major
6,861.2 km
B*
4.8480e-5
RAAN
164.5567°
Arg perigee
279.2784°
Mean anomaly
80.7957°
Rev number
15,027

§ Raw data

STARLINK-304031 57813U 23138F   26144.77223016  .00001072  00000+0  48480-4 0  99932 57813  43.0026 164.5567 0000981 279.2784  80.7957 15.27565478150273

JSON: /api/v1/satellites/57813 · /tle

For live sub-satellite position, see the globe view (requires WebGL).

§ Visibility from observer

Set your observer location to see the next 7 days of passes ≥ 10°. The values pass through the URL so the page stays shareable.

No JS? Fill the form by hand. The geolocation button needs JavaScript.